Regional Weather Roundup
Issued by NWS Grand Forks, ND

Home | Current Version | Previous Version | Graphics & Text | Print | Product List | Glossary On
Versions: 1 2 3 4 5 6 7 8 9 10 11 12 13 14 15 16 17 18 19 20 21 22 23 24 25 26 27 28 29 30 31 32 33 34 35 36 37 38 39 40 41 42 43 44 45 46 47 48 49 50
000
ASUS43 KFGF 022031
RWRFGF
PRAIRIE TO PINES  WEATHER ROUNDUP
NATIONAL WEATHER SERVICE EASTERN NORTH DAKOTA/GRAND FORKS ND
300 PM CDT SUN AUG 02 2015

 **SATELLITE DATA USED TO AUGMENT SKY COVER AT AUTOMATED STATIONS**
 *****  WEATHER ACROSS EASTERN NORTH DAKOTA  *****

CITY           SKY/WX    TMP DP  RH WIND       PRES   REMARKS
GRAND FORKS    MOSUNNY   76  48  37 NW17      29.82S
GRAND FRKS AFB SUNNY     75  48  38 NW17      29.84S
DEVILS LAKE    SUNNY     75  46  35 NW14G25   29.88S
FARGO          MOSUNNY   80  54  40 NW16G23   29.83S
WAHPETON ARPT  PTCLDY    77  52  41 N16G23    29.83S
$$

 ***** WEATHER ACROSS CENTRAL AND WESTERN NORTH DAKOTA  *****

CITY           SKY/WX    TMP DP  RH WIND       PRES   REMARKS
BISMARCK       MOSUNNY   80  54  40 N10G18    29.94S
MINOT          MOSUNNY   77  48  35 NW12G23   29.94S
JAMESTOWN      MOSUNNY   76  57  51 N17       29.89R
MINOT AFB      MOSUNNY   80  49  33 N8        29.93S
GARRISON         N/A     75  54  47 NW9G21    29.96R
WILLISTON      SUNNY     80  48  32 N13G18    30.00S
DICKINSON      SUNNY     80  50  34 N13       29.99S
HETTINGER      SUNNY     83  46  27 N15G22    30.00S
$$

 *****  OTHER AIRPORT OBSERVATIONS IN OUR AREA  *****

CITY           SKY/WX    TMP DP  RH WIND       PRES   REMARKS
WALHALLA       FAIR      73  48  40 MISG      29.83S
GRAFTON AIRPOR FAIR      75  46  35 NW14G25   29.83S
VALLEY CITY AR FAIR      75  54  46 N14G24    29.88S
CANDO          FAIR      75  50  41 NW18G24   29.90S
CAVALIER APRT  FAIR      75  46  35 N16G23    29.82S
GWINNER        FAIR      79  55  44 NW16      29.87S
SHEYENNE NWR     N/A     79  56  45 NW13      29.95
ROLLA            N/A     70  50  49 NW15G26   29.92S
 ***** THE ABOVE OBSERVATIONS ARE NON NWS ARE NOT QUALITY
       CONTROLLED AND MAY MIS-REPORT RAIN FOR SNOW...
$$

  *****  WEATHER ACROSS NORTHERN MINNESOTA  *****

CITY           SKY/WX    TMP DP  RH WIND       PRES   REMARKS
FLAG ISLAND    MOSUNNY   70  46  43 NW24G30   29.73R
WARROAD        SUNNY     72  48  43 NW20G30   29.76S
ROSEAU         SUNNY     73  52  46 NW16      29.77S
HALLOCK        MOSUNNY   75  43  31 NW17G29   29.80S
THF RVR FALLS  MOSUNNY   73  45  35 NW15G23   29.81S
BAUDETTE       PTSUNNY   74  48  39 NW22      29.74S
WASKISH        MOSUNNY   73  48  40 W15G21    29.76S
CROOKSTON      MOSUNNY   73  45  35 N20G25    29.83R
STEPHEN NDAWN    N/A     75  48  38 NW15        N/A
GREENBUSH NDAW   N/A     75  43  31 NW15        N/A
$$
  *****  WEATHER ACROSS CENTRAL AND WEST MINNESOTA  *****

CITY           SKY/WX    TMP DP  RH WIND       PRES   REMARKS
FOSSTON        MOSUNNY   72  46  40 NW15G21   29.83R
BEMIDJI        MOSUNNY   74  47  38 NW20G28   29.79S
PARK RAPIDS    MOSUNNY   77  51  40 NW22G29   29.79R
ELBOW LAKE     MOCLDY    76  59  56 N14G20    29.82S
WADENA         MOSUNNY   75  54  46 NW21G28   29.80R
DETROIT LAKES  MOSUNNY   73  50  43 N16G24    29.85R
MOORHEAD       SUNNY     75  55  50 NW17G24   29.84S
FERGUS FALLS   MOSUNNY   75  55  50 N16G24    29.82R
MORRIS MN      MOSUNNY   77  57  50 N18       29.82S
STAPLES        MOSUNNY   75  52  43 NW15G25   29.78R
$$
  *****  WEATHER ELSEWHERE ACROSS MINNESOTA  *****

CITY           SKY/WX    TMP DP  RH WIND       PRES   REMARKS
DULUTH         MOSUNNY   77  56  48 NW13      29.67F
INTRNTL FALLS  MOSUNNY   72  45  37 NW18G31   29.71R
ELY            MOSUNNY   70  48  46 NW10G20   29.68R
CLOQUET        MOSUNNY   75  52  43 W12       29.69S
WHEATON        MOSUNNY   75  57  53 NW12G18   29.85S
BRAINERD       MOSUNNY   80  53  39 NW18      29.75R
HIBBING        MOSUNNY   72  56  57 W14G29    29.71R
ALEXANDRIA     MOSUNNY   78  56  46 NW20G26   29.82R
SAINT CLOUD    MOSUNNY   82  61  48 NW15G26   29.73R
MINNEAPOLIS    MOSUNNY   83  65  54 NW18G26   29.70R
$$

  *****  WEATHER ACROSS SOUTH DAKOTA  *****

CITY           SKY/WX    TMP DP  RH WIND       PRES   REMARKS
SIOUX FALLS    MOSUNNY   85  63  47 N15       29.84R
BROOKINGS      SUNNY     81  61  50 NW16G22   29.86F
WATERTOWN      SUNNY     80  59  48 N17G23    29.87R
HURON          SUNNY     83  59  44 N14       29.86S
SISSETON         N/A     78  58  49 N14G22    29.84S
ABERDEEN       SUNNY     82  56  40 N16G24    29.87S
MITCHELL       SUNNY     85  63  47 N15G21    29.87R
PIERRE         SUNNY     87  53  31 NE9       29.90S
MOBRIDGE       SUNNY     83  55  38 N13       29.90S
RAPID CITY     SUNNY     84  54  35 NE8       30.01S
$$

  *****  SOME WEATHER IN NEARBY STATES *****

CITY           SKY/WX    TMP DP  RH WIND       PRES   REMARKS
GLASGOW MT     SUNNY     80  48  32 CALM      30.02S
GREAT FALLS MT SUNNY     80  51  36 CALM      30.05F
CHEYENNE WY    PTSUNNY   84  46  26 S18       30.15F
SCOTTSBLUFF NE MOSUNNY   91  53  27 E5        29.99S
OMAHA NE       MOSUNNY   96  72  45 SW13      29.80F HX 104
DES MOINES IA  MOSUNNY   93  72  50 W17       29.77S HX 101
DAVENPORT IA   SUNNY     88  72  58 SW16G26   29.76F HX  94
CHICAGO IL     PTSUNNY   79  73  82 S10       29.74S
EAU CLAIRE WI  PTSUNNY   80  67  64 W17G23    29.64R
LA CROSSE WI   MOSUNNY   92  65  40 W25       29.61R HX  94
$$

  *****  SOME NATIONAL WEATHER *****

CITY           SKY/WX    TMP DP  RH WIND       PRES   REMARKS
LA GUARDIA NY  PTSUNNY   87  56  34 S16G23    29.88S
RALEIGH NC     MOSUNNY   89  58  34 NE8       29.95F
ATLANTA GA     MOSUNNY   93  63  36 NE3       29.92F HX  94
NEW ORLEANS LA MOSUNNY   94  60  32 NW5       29.88F HX  94
OKLAHOMA CITY  PTSUNNY   83  70  64 SE14      29.95F
ALBUQUERQUE NM PTSUNNY   82  53  36 SW5       30.14F
SALT LAKE CITY PTSUNNY   90  37  15 NW12      29.96F
LOS ANGELES CA MOSUNNY   76  65  68 W12       29.91F
BOISE ID       SUNNY     96  42  15 W8        29.88F HX  92
SEATTLE WA     PTSUNNY   76  54  46 W6        29.94F
$$

*** WEATHER ACROSS MANITOBA...SASKATCHEWAN AND ONTARIO ***
                ***ONTARIO***

CITY           SKY/WX    TMP DP  RH WIND       PRES   REMARKS
GERALDTON      PTSUNNY   70  48  46 W5        29.54R
THUNDER BAY    PTSUNNY   77  48  36 NW14G22   29.57S
SIOUX LOOKOUT  CLOUDY    63  55  77 NW7       29.64R
TORONTO        PTSUNNY   84  57  39 SW18G25   29.74F
BIG TROUT LK   CLOUDY    55  50  82 NW12      29.51S
PICKLE LAKE    LGT RAIN  54  50  87 NW12G21   29.57R
DRYDEN         LGT RAIN  63  52  67 W18G29    29.68R
KENORA         PTSUNNY   63  52  67 NW14G24   29.73R
$$
                *** MANITOBA***

CITY           SKY/WX    TMP DP  RH WIND       PRES   REMARKS
BRANDON        MOSUNNY   75  45  33 NW20G28   29.88S
DAUPHIN        SUNNY     73  43  33 NW15G24   29.84S
ISLAND LAKE    LGT RAIN  55  52  88 NW10G21   29.64R
PILOT MOUND      N/A     72  48  43 NW17G24     N/A
THE PAS        PTSUNNY   66  48  52 NW15G22   29.84R
THOMPSON       CLOUDY    57  48  72 N17G25    29.73R
WINNIPEG       MOSUNNY   72  45  37 NW24G33   29.79S
LYNN LAKE      CLOUDY    57  46  67 NW15G24   29.85R
CHURCHILL      LGT RAIN  46 N/A N/A N23G29    29.64  FOG
GILLAM         DRZL/FOG  52  50  93 N17G24    29.62S VSB 1
$$
                ***SASKATCHEWAN***

CITY           SKY/WX    TMP DP  RH WIND       PRES   REMARKS
ESTEVAN        MOSUNNY   77  50  38 W16       29.98S
KINDERSLEY     PTSUNNY   77  48  36 VRB3      30.03F
LLOYDMINSTER   PTSUNNY   75  46  35 W6        30.04S
PRINCE ALBERT  MOSUNNY   73  52  46 NW18      29.96F
REGINA         MOSUNNY   75  46  35 N17       30.01S
YORKTON        SUNNY     72  46  40 NW16G24   29.93S
N. BATTLEFORD  SUNNY     73  50  43 N10       30.04S
LA RONGE       MOSUNNY   73  41  31 W12G24    29.93F
SASKATOON      MOSUNNY   75  48  38 NW12      30.03S
SWIFT CURRENT  SUNNY     73  52  46 NE7       30.06S
$$
NOTE: THESE ARE AUTOMATED STATIONS WITH LIMITED QUALITY CONTROL
      "FAIR" INDICATES FEW OR NO CLOUDS BELOW 12,000 FEET WITH NO
      SIGNIFICANT WEATHER AND/OR OBSTRUCTIONS TO VISIBILITY.
      SKY/WX - SKY CONDITION AND SIGNIFICANT WEATHER.
      TMP - AIR TEMPERATURE.    DP   - DEWPOINT TEMPERATURE.
      RH  - RELATIVE HUMIDITY.  PRES - PRESSURE.
      HX  - HEAT INDEX.         WCI  - WIND CHILL INDEX.
$



USA.gov is the U.S. government's official web portal to all federal, state and local government web resources and services.